Location: Arbon
(43.0005°N, 0.7472°E)
Time: 11:09:08
(UTC+00:00)

Tiros 1 despin weight - All Passes

Search period start: 30 November 2020 00:00
Search period end: 10 December 2020 00:00
Orbit: 593 x 642 km, 48.2° (Epoch: 29 November)

Date Brightness Start Highest point End Pass type
(mag) Time Alt. Az. Time Alt. Az. Time Alt. Az.
30 Nov - 09:48:41 10° SSE 09:50:57 14° SE 09:53:15 10° ESE daylight
30 Nov - 11:27:14 10° SW 11:31:51 61° SSE 11:36:28 10° ENE daylight
30 Nov - 13:08:57 10° W 13:13:33 52° NNW 13:18:09 10° ENE daylight
30 Nov - 14:51:08 10° WNW 14:55:41 46° N 15:00:12 10° E daylight
30 Nov - 16:32:51 10° WNW 16:37:33 85° SSW 16:42:13 10° ESE daylight
30 Nov - 18:15:10 10° W 18:18:40 21° SW 18:22:07 10° S visible
01 Dec - 10:03:13 10° SSW 10:07:01 25° SE 10:10:51 10° E daylight
01 Dec - 11:43:33 10° WSW 11:48:14 85° NNW 11:52:57 10° ENE daylight
01 Dec - 13:25:40 10° WNW 13:30:10 45° N 13:34:41 10° ENE daylight
01 Dec - 15:07:40 10° WNW 15:12:18 56° NNE 15:16:54 10° E daylight
01 Dec - 16:49:22 10° WNW 16:53:55 52° SW 16:58:25 10° SE visible
01 Dec - 18:33:34 10° WSW 18:34:41 11° SW 18:35:46 10° SW visible
02 Dec - 10:18:47 10° SW 10:23:12 44° SE 10:27:40 10° ENE daylight
02 Dec - 12:00:06 10° W 12:04:44 60° NNW 12:09:24 10° ENE daylight
02 Dec - 13:42:20 10° WNW 13:46:50 44° N 13:51:20 10° ENE daylight
02 Dec - 15:24:07 10° WNW 15:28:50 76° NNE 15:33:30 10° ESE daylight
02 Dec - 17:06:04 10° W 17:10:08 30° SW 17:14:10 10° SSE visible
03 Dec - 08:55:27 10° S 08:58:31 18° SE 09:01:37 10° E daylight
03 Dec - 10:34:53 10° SW 10:39:31 75° SSE 10:44:13 10° ENE daylight
03 Dec - 12:16:47 10° W 12:21:20 48° N 12:25:54 10° ENE daylight
03 Dec - 13:58:54 10° WNW 14:03:29 49° N 14:08:02 10° E daylight
03 Dec - 15:40:35 10° WNW 15:45:16 71° SSW 15:49:54 10° SE daylight
03 Dec - 17:23:19 10° W 17:26:14 16° SW 17:29:07 10° S visible
04 Dec - 09:10:32 10° SSW 09:14:37 32° SE 09:18:46 10° ENE daylight
04 Dec - 10:51:18 10° WSW 10:55:58 73° NNW 11:00:40 10° ENE daylight
04 Dec - 12:33:30 10° WNW 12:37:59 44° N 12:42:29 10° ENE daylight
04 Dec - 14:15:24 10° WNW 14:20:04 63° NNE 14:24:43 10° E daylight
04 Dec - 15:57:08 10° WNW 16:01:33 42° SW 16:05:56 10° SSE daylight
05 Dec - 07:48:25 10° SSE 07:50:04 12° SE 07:51:43 10° ESE daylight
05 Dec - 09:26:20 10° SW 09:30:51 56° SSE 09:35:27 10° ENE daylight
05 Dec - 11:07:56 10° W 11:12:31 54° NNW 11:17:08 10° ENE daylight
05 Dec - 12:50:07 10° WNW 12:54:38 45° N 12:59:10 10° E daylight
05 Dec - 14:31:50 10° WNW 14:36:33 89° NNE 14:41:15 10° ESE daylight
05 Dec - 16:14:00 10° W 16:17:44 24° SW 16:21:25 10° S daylight
06 Dec - 08:02:30 10° S 08:06:05 23° SE 08:09:42 10° E daylight
06 Dec - 09:42:35 10° WSW 09:47:13 89° S 09:51:56 10° ENE daylight
06 Dec - 11:24:38 10° W 11:29:08 45° N 11:33:39 10° ENE daylight
06 Dec - 13:06:40 10° WNW 13:11:16 53° NNE 13:15:52 10° E daylight
06 Dec - 14:48:19 10° WNW 14:52:56 57° SSW 14:57:31 10° SE daylight
06 Dec - 16:31:49 10° WSW 16:33:46 12° SW 16:35:43 10° SSW daylight
07 Dec - 08:17:57 10° SSW 08:22:15 40° SE 08:26:36 10° ENE daylight
07 Dec - 09:59:06 10° W 10:03:43 64° NNW 10:08:22 10° ENE daylight
07 Dec - 11:41:19 10° WNW 11:45:47 44° N 11:50:17 10° ENE daylight
07 Dec - 13:23:07 10° WNW 13:27:49 72° NNE 13:32:30 10° ESE daylight
07 Dec - 15:04:58 10° WNW 15:09:11 33° SW 15:13:22 10° SSE daylight
08 Dec - 06:54:54 10° S 06:57:36 16° SE 07:00:19 10° E daylight
08 Dec - 08:33:58 10° SW 08:38:32 69° SSE 08:43:11 10° ENE daylight
08 Dec - 10:15:46 10° W 10:20:17 49° N 10:24:52 10° ENE daylight
08 Dec - 11:57:54 10° WNW 12:02:26 48° N 12:06:59 10° E daylight
08 Dec - 13:39:33 10° WNW 13:44:15 77° SSW 13:48:56 10° ESE daylight
08 Dec - 15:22:04 10° W 15:25:17 18° SW 15:28:30 10° S daylight
09 Dec - 07:09:45 10° SSW 07:13:40 28° SE 07:17:39 10° E daylight
09 Dec - 08:50:20 10° WSW 08:54:56 78° NNW 08:59:38 10° ENE daylight
09 Dec - 10:32:28 10° WNW 10:36:56 44° N 10:41:26 10° ENE daylight
09 Dec - 12:14:24 10° WNW 12:19:02 59° NNE 12:23:40 10° E daylight
09 Dec - 13:56:05 10° WNW 14:00:34 46° SW 14:05:03 10° SE daylight
